Regional Weather Roundup
Issued by NWS Raleigh/Durham, NC

Home | Current Version | Previous Version | Text Only | Print | Product List | Glossary On
Versions: 1 2 3 4 5 6 7 8 9 10 11 12 13 14 15 16 17 18 19 20 21 22 23 24 25 26 27 28 29 30 31 32 33 34 35 36 37 38 39 40 41 42 43 44 45 46 47 48 49 50
000
ASUS42 KRAH 190110
RWRRAH
NORTH CAROLINA WEATHER ROUNDUP
NATIONAL WEATHER SERVICE RALEIGH NC
800 PM EST SAT NOV 18 2017

NOTE: "FAIR" INDICATES FEW OR NO CLOUDS BELOW 12,000 FEET WITH NO
SIGNIFICANT WEATHER AND/OR OBSTRUCTIONS TO VISIBILITY.

NCZ001-053-055-056-065-067-190200-
WESTERN NORTH CAROLINA

CITY           SKY/WX    TMP DP  RH WIND       PRES   REMARKS
ASHEVILLE      LGT RAIN  55  52  89 S10       29.70F
JEFFERSON      CLOUDY    49  47  90 S14G26    29.63F
HICKORY        CLOUDY    59  50  72 S7        29.69F
RUTHERFORDTON  CLOUDY    56  51  81 SW3       29.72F
MOUNT AIRY     CLOUDY    60  49  66 SW6       29.69F
BOONE          CLOUDY    50  49  96 S6        29.68F
$$

NCZ021-022-025-041-071-084-088-190200-
CENTRAL NORTH CAROLINA

CITY           SKY/WX    TMP DP  RH WIND       PRES   REMARKS
CHARLOTTE      MOCLDY    64  52  64 S15       29.71F
GREENSBORO     CLOUDY    62  50  64 SW18      29.67F
WINSTON-SALEM  CLOUDY    62  49  62 S10G16    29.68F
RALEIGH-DURHAM CLOUDY    62  51  67 SW14      29.72F
FORT BRAGG     CLOUDY    63  55  73 S6        29.74F
FAYETTEVILLE   CLOUDY    63  57  81 S12       29.76F
BURLINGTON     CLOUDY    64  51  62 S14G22    29.68F
LAURINBURG     MOCLDY    63  55  75 S8        29.77F
$$

NCZ011-015-027-028-043-044-047-080-103-190200-
NORTHEASTERN NORTH CAROLINA

CITY           SKY/WX    TMP DP  RH WIND       PRES   REMARKS
ROCKY MT-WILSO CLOUDY    63  56  78 S9        29.73F
GREENVILLE     CLOUDY    63  55  77 S13       29.78F
WASHINGTON     CLOUDY    61  56  82 S6        29.77F
ELIZABETH CITY CLOUDY    62  56  80 S13       29.75F
MANTEO         CLOUDY    59  55  87 SW12      29.80F
CAPE HATTERAS  CLOUDY    66  60  81 SW12G18   29.83S
$$

NCZ078-087-090-091-093-098-101-190200-
SOUTHEASTERN NORTH CAROLINA

CITY           SKY/WX    TMP DP  RH WIND       PRES   REMARKS
LUMBERTON      MOCLDY    64  56  75 S9        29.78F
GOLDSBORO      CLOUDY    62  56  80 S8        29.74F
KINSTON        CLOUDY    63  55  77 S12       29.77F
KENANSVILLE    CLOUDY    63  57  82 SW3       29.78F
NEW BERN       CLOUDY    65  60  84 S12       29.81F
CHERRY POINT   CLOUDY    68  61  78 SW15G23   29.82S
BEAUFORT       CLOUDY    67  61  81 SW16      29.83R
JACKSONVILLE   CLOUDY    66  59  78 SW9       29.81S
WILMINGTON     PTCLDY    66  56  70 SW9       29.83S
$$




USA.gov is the U.S. government's official web portal to all federal, state and local government web resources and services.